Location: Arborea
(39.7744°N, 8.5819°E)
Time: 04:16:29
(UTC+00:00)

USA 229 - Visible Passes

Search period start: 09 December 2023 00:00
Search period end: 19 December 2023 00:00
Orbit: 905 x 1306 km, 63.4° (Epoch: 10 November)

Date Brightness Start Highest point End Pass type
(mag) Time Alt. Az. Time Alt. Az. Time Alt. Az.
09 Dec 5.0 03:12:16 30° NE 03:12:16 30° NE 03:15:30 10° NE visible
09 Dec 4.6 04:59:44 23° NW 05:00:34 24° NW 05:05:57 10° NNE visible
10 Dec 5.9 02:29:19 15° NE 02:29:19 15° NE 02:30:22 10° NE visible
10 Dec 4.5 04:16:47 31° NNW 04:16:47 31° NNW 04:21:18 10° NNE visible
10 Dec 5.4 06:06:19 10° NW 06:08:32 12° NNW 06:10:48 10° N visible
11 Dec 5.1 03:33:43 25° NNE 03:33:43 25° NNE 03:36:35 10° NNE visible
11 Dec 5.2 05:21:10 14° NW 05:22:45 15° NNW 05:26:28 10° N visible
12 Dec 5.8 02:50:34 16° NNE 02:50:34 16° NNE 02:51:44 10° NNE visible
12 Dec 5.0 04:38:01 19° NNW 04:38:01 19° NNW 04:41:57 10° NNE visible
13 Dec 5.3 03:54:49 20° N 03:54:49 20° N 03:57:23 10° NNE visible
13 Dec 5.6 05:44:15 10° NNW 05:45:19 10° NNW 05:46:24 10° N visible
14 Dec 5.8 03:11:33 15° NNE 03:11:33 15° NNE 03:12:42 10° NNE visible
14 Dec 5.4 04:58:59 13° NNW 04:59:28 13° NNW 05:02:23 10° N visible
15 Dec 5.5 04:15:40 15° N 04:15:40 15° N 04:17:57 10° N visible
16 Dec 5.8 03:32:19 13° N 03:32:19 13° N 03:33:25 10° NNE visible
17 Dec 5.6 04:36:23 11° NNW 04:36:23 11° NNW 04:38:12 10° N visible
18 Dec 5.8 03:52:59 12° N 03:52:59 12° N 03:53:54 10° N visible
